Simultaneous Nadir Overpasses (SNOs) Predictions

Prediction of SNOs between GOES-16 and NOAA-19 Satellite Orbit:

Table of predicted SNOs for the next 14.0 days since TLE Epoch: 8/13/2022
Index Date Time (GOES-16) GOES-16 Lat,Lon NOAA-19 Lat,Lon Distance(km) Time Diff (sec)
1 08/13/2022 13:03:38 -0.02, -75.20 0.45, -77.25 234.54 80
2 08/14/2022 12:54:27 -0.02, -75.20 -0.23, -74.36 96.29 80
3 08/15/2022 12:42:35 -0.02, -75.21 -0.91, -71.47 427.34 80
4 08/17/2022 01:12:26 0.02, -75.21 -0.90, -79.26 461.48 80
5 08/18/2022 01:00:33 0.02, -75.22 -0.26, -76.36 129.92 80
6 08/19/2022 00:51:22 0.02, -75.23 0.45, -73.47 201.75 80
7 08/21/2022 13:11:49 -0.01, -75.28 0.69, -78.31 346.38 80
8 08/22/2022 12:59:57 -0.01, -75.29 -0.00, -75.43 14.63 80
9 08/23/2022 12:45:25 -0.00, -75.31 -0.63, -72.52 317.64 80
10 08/26/2022 01:08:40 0.00, -75.34 -0.50, -77.40 236.17 80
